User: anonymous   Login
Location: Standeford and Andreas Observatories
(44.1397°N, 93.9969°W)
Time: 14:25:08
(UTC-06:00)
Language:

Cosmos 1500 Rocket - Orbit

View from above orbital plane
View from above orbital plane
View from above satellite
View from above satellite

Ground track
Ground track

The orbit data is extracted from the following two-line orbital elements,

1 14373U 83099B   14324.34491152  .00000613  00000-0  71842-4 0  8276
2 14373 082.5425 042.6579 0021818 088.8906 339.3679 14.83236854681535
Epoch (UTC): 20 November 2014 08:16:40
Eccentricity: 0.0021818
inclination: 82.5425°
perigee height: 604 km
apogee height: 634 km
right ascension of ascending node: 42.6579°
argument of perigee: 88.8906°
revolutions per day: 14.83236854
mean anomaly at epoch: 339.3679°
orbit number at epoch: 68153

The dashed part of the orbit path shows where the satellite is in the earth's shadow,  

DLR